Weather History for Marshfield, WI

Change the Weather History Date:

Wednesday, April 17, 2013

  Actual Average Record
Temperature  
Mean Temperature 34 °F -  
Max Temperature 39 °F 56 °F 77 °F (1964)
Min Temperature 30 °F 33 °F 16 °F (1983)
Degree Days  
Heating Degree Days 30    
Moisture  
Dew Point 29 °F    
Average Humidity 79    
Maximum Humidity 96    
Minimum Humidity 70    
Precipitation  
Precipitation 0.00 in - - ()
Sea Level Pressure  
Sea Level Pressure 30.16 in    
Wind  
Wind Speed 11 mph (East)    
Max Wind Speed 23 mph    
Max Gust Speed 30 mph    
Visibility 9 miles    
Events Rain    
Averages and records for this station are not official NWS values.
T = Trace of Precipitation, MM = Missing Value Source: NWS Daily Summary

Daily Weather History Graph

Daily Weather History Graph

Search for Another Location

Airport:

Trip Planner

Search our weather history database for the weather conditions in past years. The results will help you decide how hot, cold, wet, or windy it might be!

Date:

Astronomy

Apr. 17, 2013 Rise Set
Actual Time 6:12 AM CDT 7:48 PM CDT
Civil Twilight 5:42 AM CDT 8:19 PM CDT
Nautical Twilight 5:04 AM CDT 8:56 PM CDT
Astronomical Twilight 4:25 AM CDT 9:36 PM CDT
Moon 11:22 AM CDT (4/17) 1:31 AM CDT (4/17)
Length of Visible Light 14h 37m
Length of Day
13h 35m
Waxing Crescent, 42% of the Moon is Illuminated
Apr 17
Waxing Crescent
Apr 18
First Quarter
Apr 25
Full
May 2
Last Quarter
May 9
New

Hourly Weather History & Observations

Time (CDT) Temp. Windchill Dew Point Humidity Pressure Visibility Wind Dir Wind Speed Gust Speed Precip Events Conditions
12:54 AM 34.0 °F 28.0 °F 26.1 °F 73% 30.35 in 10.0 mi NE 6.9 mph - N/A   Clear
1:54 AM 34.0 °F 26.6 °F 25.0 °F 70% 30.34 in 10.0 mi ENE 9.2 mph - N/A   Clear
2:54 AM 33.1 °F 24.9 °F 25.0 °F 72% 30.35 in 10.0 mi ENE 10.4 mph - N/A   Partly Cloudy
3:54 AM 33.1 °F 24.9 °F 26.1 °F 75% 30.35 in 10.0 mi East 10.4 mph - N/A   Clear
4:54 AM 30.9 °F 22.2 °F 26.1 °F 82% 30.35 in 10.0 mi East 10.4 mph - N/A   Clear
5:54 AM 30.9 °F 22.2 °F 26.1 °F 82% 30.33 in 10.0 mi East 10.4 mph - N/A   Clear
6:54 AM 32.0 °F 22.5 °F 26.1 °F 79% 30.33 in 10.0 mi East 12.7 mph - N/A   Mostly Cloudy
7:54 AM 32.0 °F 23.0 °F 27.0 °F 82% 30.36 in 10.0 mi East 11.5 mph 24.2 mph N/A   Overcast
9:54 AM 35.1 °F 24.5 °F 28.0 °F 76% 30.27 in 10.0 mi ENE 18.4 mph 21.9 mph N/A   Overcast
10:54 AM 35.1 °F 26.4 °F 28.0 °F 76% 30.26 in 10.0 mi East 12.7 mph - N/A   Overcast
11:54 AM 36.0 °F 29.0 °F 28.0 °F 73% 30.28 in 10.0 mi East 9.2 mph - N/A   Overcast
12:54 PM 37.0 °F 31.6 °F 28.9 °F 73% 30.29 in 10.0 mi East 6.9 mph - 0.00 in   Overcast
1:54 PM 36.0 °F 29.0 °F 30.0 °F 79% 30.24 in 8.0 mi ENE 9.2 mph - 0.00 in Rain Light Rain
2:54 PM 37.0 °F 25.9 °F 30.9 °F 79% 30.13 in 10.0 mi East 23.0 mph 29.9 mph 0.00 in   Mostly Cloudy
3:54 PM 37.9 °F 30.0 °F 30.9 °F 76% 30.11 in 10.0 mi East 12.7 mph 23.0 mph 0.00 in   Overcast
4:54 PM 39.0 °F 31.8 °F 30.0 °F 70% 30.12 in 10.0 mi East 11.5 mph 20.7 mph N/A   Overcast
5:47 PM 37.4 °F 27.5 °F 28.4 °F 70% 30.04 in 10.0 mi East 18.4 mph 24.2 mph N/A   Overcast
5:54 PM 37.9 °F 28.9 °F 28.9 °F 70% 30.09 in 10.0 mi East 16.1 mph 24.2 mph N/A   Overcast
6:54 PM 37.0 °F 28.1 °F 30.0 °F 76% 30.03 in 10.0 mi East 15.0 mph - N/A   Overcast
7:54 PM 36.0 °F 27.1 °F 30.0 °F 79% 30.02 in 8.0 mi East 13.8 mph 23.0 mph N/A   Overcast
8:32 PM 35.6 °F 26.2 °F 30.2 °F 81% 29.94 in 10.0 mi East 15.0 mph - N/A   Overcast
8:54 PM 36.0 °F 27.1 °F 30.9 °F 82% 30.00 in 10.0 mi East 13.8 mph 24.2 mph N/A   Overcast
9:54 PM 36.0 °F 27.1 °F 32.0 °F 86% 29.99 in 6.0 mi ENE 13.8 mph - N/A   Overcast
10:37 PM 35.6 °F 26.6 °F 33.8 °F 93% 29.92 in 4.0 mi ENE 13.8 mph - 0.00 in Rain Light Rain
10:54 PM 35.1 °F 26.9 °F 34.0 °F 96% 29.96 in 4.0 mi ENE 11.5 mph - 0.00 in Rain Light Rain
11:50 PM 35.6 °F 27.5 °F 33.8 °F 93% 29.90 in 6.0 mi ENE 11.5 mph - 0.00 in Rain Light Rain
11:54 PM 35.1 °F 26.4 °F 34.0 °F 96% 29.93 in 6.0 mi ENE 12.7 mph - 0.00 in Rain Light Rain